Location: Clyde
(45.1830°S, 169.3170°E)
Time: 16:51:02
(UTC+13:00)

Cosmos 2322 Rocket - Pass Details

Date: 24 January 2019
Orbit: 834 x 849 km, 71.0° (Epoch: 19 February)

Event Time Altitude Azimuth Distance (km) Brightness Sun altitude
Rises 22:57:22 0° 327° (NNW) 3,392 5.2 -14.0°
Reaches altitude 10° 22:59:49 10° 324° (NW) 2,467 4.5 -14.3°
Maximum altitude 23:05:27 66° 241° (WSW) 934 2.7 -15.0°
Drops below altitude 10° 23:11:11 10° 159° (SSE) 2,505 5.0 -15.6°
Sets 23:13:42 0° 156° (SSE) 3,448 5.7 -15.9°
